Regional Weather Roundup
Issued by NWS Wilmington, NC

Home | Current Version | Previous Version | Text Only | Print | Product List | Glossary On
Versions: 1 2 3 4 5 6 7 8 9 10 11 12 13 14 15 16 17 18 19 20 21 22 23 24 25 26 27 28
000
ASUS42 KILM 231713
RWRILM
RWRILM
REGIONAL HOURLY WEATHER ROUNDUP
NATIONAL WEATHER SERVICE WILMINGTON NC
1200 PM EST THU FEB 23 2017

NOTE: "FAIR" INDICATES FEW OR NO CLOUDS BELOW 12,000 FEET WITH NO
SIGNIFICANT WEATHER AND/OR OBSTRUCTIONS TO VISIBILITY.

...............WFO WILMINGTON COUNTY WARNING AREA...............

......COASTAL NC AND SC COUNTIES......

CITY           SKY/WX    TMP DP  RH WIND       PRES   REMARKS
WILMINGTON     PTSUNNY   71  58  63 E10       29.94F
N MYRTLE BEACH MOSUNNY   73  57  57 E12G22    29.91F
MYRTLE BEACH   PTSUNNY  N/A N/A N/A E14       29.92F

......INLAND NC AND SC COUNTIES.......

CITY           SKY/WX    TMP DP  RH WIND       PRES   REMARKS
LUMBERTON      LGT RAIN  71  56  58 SE12      29.92F
ELIZABETHTOWN  PTSUNNY   72  55  56 E3        29.93F
WHITEVILLE     CLOUDY    71  56  59 E9        29.93F
FLORENCE       PTSUNNY   73  56  54 E8G17     29.91F
DARLINGTON     MOSUNNY   73  57  57 E8        29.92F
KINGSTREE      FAIR      72  55  56 E10       29.90F
HARTSVILLE     FAIR      70  54  56 NE6       29.91F
BENNETTSVILLE  NOT AVBL
CONWAY         PTSUNNY   73  57  56 NE10      29.91F HAZE
GEORGETOWN     CLOUDY    68  59  73 NE8       29.91F
MARION         CLOUDY    70  55  60 E9        29.92F

....................REST OF NORTH CAROLINA......................

.........EASTERN NC.........

CITY           SKY/WX    TMP DP  RH WIND       PRES   REMARKS
CAPE HATTERAS  MOSUNNY   72  58  61 S5        29.97F HAZE
JACKSONVILLE   CLOUDY    72  55  55 SE12      29.94F
MOREHEAD CITY  PTSUNNY   74  57  55 E8        29.95F
KENANSVILLE    MOSUNNY   72  52  49 SE7       29.94F
NEW BERN       MOSUNNY   72  55  55 E9        29.96F
ELIZABETH CITY CLOUDY    68  55  63 E6        29.97F

.........CENTRAL NC.........

CITY           SKY/WX    TMP DP  RH WIND       PRES   REMARKS
RALEIGH DURHAM MOSUNNY   72  52  49 CALM      29.94F
ROCKY MOUNT    SUNNY     71  50  47 VRB3      29.95F
ROANOKE RAPIDS NOT AVBL
FAYETTEVILLE   MOSUNNY   74  54  49 VRB6      29.93F
HOFFMAN        PTSUNNY   70  54  56 SE8       29.92F

.........WESTERN NC.........

CITY           SKY/WX    TMP DP  RH WIND       PRES   REMARKS
CHARLOTTE      MOSUNNY   71  52  50 S7        29.93F
GREENSBORO     MOSUNNY   70  53  54 S9        29.93F
HICKORY        NOT AVBL
BOONE          NOT AVBL
ASHEVILLE      NOT AVBL

.....................REST OF SOUTH CAROLINA.....................

.........EASTERN SC.........

CITY           SKY/WX    TMP DP  RH WIND       PRES   REMARKS
CHARLESTON     PTSUNNY   76  58  53 E15G21    29.86F
BEAUFORT MCAS  MOSUNNY   75  62  64 E10       29.85F
HILTON HEAD    MOSUNNY   73  63  68 NE12G21   29.85F

.........CENTRAL SC.........

CITY           SKY/WX    TMP DP  RH WIND       PRES   REMARKS
COLUMBIA       MOSUNNY   72  54  53 E8        29.90F
ORANGEBURG     MOSUNNY   71  55  56 NE8       29.89F
SUMTER SHAW    MOSUNNY   75  55  50 E9        29.88F

.........WESTERN SC.........

CITY           SKY/WX    TMP DP  RH WIND       PRES   REMARKS
GREENVILLE     NOT AVBL
ROCK HILL      SUNNY     71  54  54 VRB5      29.93F
ANDERSON       MOSUNNY   70  55  59 CALM      29.91F
CLEMSON        NOT AVBL
GREENWOOD      MOSUNNY   69  53  56 VRB6      29.92F


...................COASTAL AND OFFSHORE REPORTS..................

................LOCAL PIERS AND NC RESERVE................


STATION/POSITION TIME  SKY/WX   TEMP    WIND        PRES    VSBY
                                AIR SEA DIR/SP/G
                 (UTC)          (F)     (DEG/KT/KT) (MB)    (MI)
JOHNY MRCER PIER 1648            60 61   40/  8/  9 1012.8F
NC RESRV MASNBRO NOT AVBL
OCEAN CREST PIER NOT AVBL
SPRINGMAID  PIER 1648                               1012.4F


................COASTAL AND OFFSHORE BUOYS................


STATION/POSITION TIME  SKY/WX   TEMP    WIND        PRES    VSBY
                                AIR SEA DIR/SP/G
                 (UTC)          (F)     (DEG/KT/KT) (MB)    (MI)
DIMNDSHOAL 41025 1650            71 74  140/ 16/ 17 1014.6F
WVE H/P(F/S)=  4/ 5 SWL H/P/D(F/S/D)=  2/ 90/10

CAPE LOOKOUT     1600            67      40/  5/  5 1014.4S
ONSLOW BAY 41036 NOT AVBL
ONSLOW BAY 41064 1608            69     120/  8/ 12 1014.3S
ONSLOW BAY 41159 1643               69                N/A
WVE H/P(F/S)=  4/ 6 SWL H/P/D(F/S/D)=  2/110/11

MASNBO INL 41110 1659               59                N/A
WVE H/P(F/S)=  4/ 6 SWL H/P/D(F/S/D)=  2/120/11

WILM HARBR 41108 1647               58                N/A
WVE H/P(F/S)=  4/ 7

27SE WRITB 41037 1608            69 66  100/ 10/ 16 1013.2R
FRYING PAN 41013 1650            70 69  100/ 16/ 21 1012.6F
WVE H/P(F/S)=  6/ 7 SWL H/P/D(F/S/D)=  3/150/ 7

SUNST NRSH 41024 1608            63 58   80/  8/ 10 1013.4F
CAPRS NRSH 41029 1608            62 59   50/ 14/ 17 1011.7F
EDISTO     41004 1550            70 69   60/ 16/ 19 1010.7
WVE H/P(F/S)=  8/ 9 SWL H/P/D(F/S/D)=  5/130/ 9



..........OFFSHORE BUOYS BEYOND 100 NM OFFSHORE...........
.....IN A TRIANGLE---HAT TO BERMUDA TO BAHAMAS TO HAT.....


STATION/POSITION TIME  SKY/WX   TEMP    WIND        PRES    VSBY
                                AIR SEA DIR/SP/G
                 (UTC)          (F)     (DEG/KT/KT) (MB)    (MI)
150E HAT   41001 NOT AVBL
W BERMUDA  41048 1650            66 69  120/ 16/ 17 1017.5F
WVE H/P(F/S)=  8/11 SWL H/P/D(F/S/D)=  7/ 50/11

ATLANTIC S 41049 1650            69 72   90/ 14/ 17 1018.1F
WVE H/P(F/S)= 11/12 SWL H/P/D(F/S/D)= 11/ 10/12

E BAHAMAS  41046 NOT AVBL
NE BAHAMAS 41047 1700            73 73  130/ 23/ 29 1010.6
120E CANVRL41010 NOT AVBL

END




USA.gov is the U.S. government's official web portal to all federal, state and local government web resources and services.